FW0114 Weather Reports


Display with metric or nautical units.
time (UTC)temp
F
wind
direction
speed
MPH
gust
MPH
rain 1hr
in
rain 24hr
in
rain mn
in
humidity
%
barometer
mb
20260510033508 53 259 0.0 7.0 0.12 0.12 0.12 91 990.4
20260510033008 53 214 0.0 1.0 0.12 0.12 0.12 90 990.6
20260510032508 53 290 0.0 2.0 0.12 0.12 0.12 90 990.6
20260510032008 53 245 0.0 0.0 0.12 0.12 0.12 89 990.4
20260510031508 53 211 0.0 1.0 0.12 0.12 0.12 89 990.5
20260510031008 53 165 0.0 1.0 0.12 0.12 0.12 88 990.5
20260510030506 53 190 0.0 0.0 0.12 0.12 0.12 87 990.5
20260510030006 53 210 0.0 3.0 0.12 0.12 0.12 85 990.5
20260510025506 54 238 0.0 3.0 0.10 0.10 0.10 84 990.6
20260510025006 55 201 0.0 2.0 0.08 0.08 0.08 82 990.7
20260510024505 55 193 0.0 6.0 0.05 0.05 0.05 80 990.7
20260510024004 56 205 0.0 8.0 0.00 0.00 0.00 77 990.3
20260510023504 56 211 0.0 9.0 0.00 0.00 0.00 76 990.2
20260510023007 56 194 0.0 9.0 0.00 0.00 0.00 75 990.1
20260510022507 56 195 0.0 7.0 0.00 0.00 0.00 75 990.0
20260510022003 56 177 0.0 5.0 0.00 0.00 0.00 75 989.9
20260510021506 56 211 0.0 7.0 0.00 0.00 0.00 74 990.0
20260510021003 56 199 0.0 7.0 0.00 0.00 0.00 74 990.0
20260510020506 56 198 0.0 8.0 0.00 0.00 0.00 74 989.9
20260510020003 56 163 0.0 9.0 0.00 0.00 0.00 74 989.8
20260510015501 57 187 0.0 7.0 0.00 0.00 0.00 74 990.0
20260510015000 57 178 0.0 9.0 0.00 0.00 0.00 73 990.1
20260510014600 57 163 0.0 9.0 0.00 0.00 0.00 73 990.2
20260510014101 57 200 0.0 14.0 0.00 0.00 0.00 73 990.4
20260510014002 57 178 0.0 14.0 0.00 0.00 0.00 73 990.4
20260510013600 57 174 0.0 14.0 0.00 0.00 0.00 73 990.4
20260510013103 57 191 0.0 9.0 0.00 0.00 0.00 73 990.5
20260510012559 57 191 0.0 9.0 0.00 0.00 0.00 72 990.4
20260510012059 57 147 1.0 9.0 0.00 0.00 0.00 72 990.3
20260510011602 57 188 0.0 9.0 0.00 0.00 0.00 72 990.4
20260510011059 57 178 0.0 5.0 0.00 0.00 0.00 72 990.4
20260510010559 57 150 0.0 1.0 0.00 0.00 0.00 72 990.3
20260510010107 57 193 0.0 1.0 0.00 0.00 0.00 71 990.3
20260510005559 57 264 0.0 0.0 0.00 0.00 0.00 71 990.3
20260510005058 58 168 0.0 0.0 0.00 0.00 0.00 71 990.3
20260510004558 58 170 0.0 1.0 0.00 0.00 0.00 70 990.4
20260510004057 58 184 0.0 1.0 0.00 0.00 0.00 70 990.4
20260510003557 58 150 0.0 2.0 0.00 0.00 0.00 69 990.5
20260510003058 58 178 0.0 2.0 0.00 0.00 0.00 69 990.6
20260510002557 58 186 0.0 7.0 0.00 0.00 0.00 68 990.4
20260510002057 59 132 0.0 8.0 0.00 0.00 0.00 68 990.5
20260510001557 59 151 0.0 8.0 0.00 0.00 0.00 68 990.6
20260510001058 59 189 0.0 3.0 0.00 0.00 0.00 67 990.8
20260510000557 59 207 0.0 6.0 0.00 0.00 0.00 67 990.8
20260510000106 59 210 0.0 0.0 0.00 0.00 0.00 67 990.9
20260509235557 60 150 0.0 2.0 0.00 0.00 0.00 66 991.0
20260509235056 60 188 0.0 6.0 0.00 0.00 0.00 66 991.0
20260509234601 60 208 0.0 2.0 0.00 0.00 0.00 65 991.0
20260509234056 60 191 0.0 10.0 0.00 0.00 0.00 64 991.2
20260509233557 60 180 1.0 11.0 0.00 0.00 0.00 64 991.2
20260509233056 61 188 2.0 13.0 0.00 0.00 0.00 63 991.3
20260509232555 61 237 0.0 13.0 0.00 0.00 0.00 63 991.2
20260509232055 61 201 2.0 11.0 0.00 0.00 0.00 63 991.3
20260509231555 61 161 1.0 11.0 0.00 0.00 0.00 62 991.2
20260509231054 61 225 1.0 14.0 0.00 0.00 0.00 62 991.1
20260509230555 61 248 1.0 14.0 0.00 0.00 0.00 61 990.9
20260509230055 62 228 1.0 12.0 0.00 0.00 0.00 61 990.8
20260509225555 62 229 0.0 12.0 0.00 0.00 0.00 60 990.8
20260509225054 62 240 2.0 12.0 0.00 0.00 0.00 59 990.8
20260509224554 62 212 1.0 14.0 0.00 0.00 0.00 59 990.7
20260509224056 62 221 3.0 14.0 0.00 0.00 0.00 58 990.7
20260509223554 63 184 2.0 14.0 0.00 0.00 0.00 57 990.5
20260509223101 63 197 1.0 13.0 0.00 0.00 0.00 57 990.6
20260509222555 63 172 2.0 13.0 0.00 0.00 0.00 56 990.5
20260509222053 63 171 3.0 14.0 0.00 0.00 0.00 54 990.5
20260509221552 63 201 2.0 14.0 0.00 0.00 0.00 51 990.3
20260509221053 64 215 1.0 12.0 0.00 0.00 0.00 50 990.4
20260509220551 64 178 0.0 12.0 0.00 0.00 0.00 49 990.4
20260509220050 64 167 0.0 7.0 0.00 0.00 0.00 48 990.5
20260509215550 64 147 0.0 7.0 0.00 0.00 0.00 48 990.6
20260509215049 64 145 0.0 7.0 0.00 0.00 0.00 47 990.7
20260509214550 64 206 0.0 7.0 0.00 0.00 0.00 48 990.6
20260509214048 64 244 0.0 7.0 0.00 0.00 0.00 47 990.7
20260509213548 65 233 0.0 7.0 0.00 0.00 0.00 46 990.8
20260509213048 65 214 0.0 9.0 0.00 0.00 0.00 45 990.7
20260509212550 66 217 1.0 15.0 0.00 0.00 0.00 44 990.8
20260509212047 66 200 1.0 15.0 0.00 0.00 0.00 47 990.8
20260509211547 66 230 3.0 12.0 0.00 0.00 0.00 45 990.8
20260509211047 66 164 1.0 11.0 0.00 0.00 0.00 44 990.8
20260509210547 66 173 0.0 13.0 0.00 0.00 0.00 44 990.9
20260509210053 66 186 0.0 14.0 0.00 0.00 0.00 44 990.8
20260509205545 65 189 2.0 11.0 0.00 0.00 0.00 45 990.7
20260509205049 64 194 1.0 9.0 0.00 0.00 0.00 45 990.9
20260509204552 64 107 0.0 10.0 0.00 0.00 0.00 45 990.9
20260509204044 65 171 1.0 10.0 0.00 0.00 0.00 44 990.9
20260509203544 65 200 0.0 12.0 0.00 0.00 0.00 45 990.9
20260509203044 65 153 3.0 12.0 0.00 0.00 0.00 44 991.0
20260509202543 65 196 1.0 12.0 0.00 0.00 0.00 42 991.0
20260509202044 66 184 2.0 12.0 0.00 0.00 0.00 42 991.0
20260509201547 66 180 0.0 12.0 0.00 0.00 0.00 43 991.0
20260509201042 66 181 0.0 12.0 0.00 0.00 0.00 40 991.1
20260509200542 66 170 0.0 11.0 0.00 0.00 0.00 40 991.1
20260509200059 66 208 2.0 16.0 0.00 0.00 0.00 40 991.1
20260509195541 67 192 1.0 13.0 0.00 0.00 0.00 37 991.1
20260509195040 67 131 0.0 14.0 0.00 0.00 0.00 41 991.2
20260509194540 66 238 1.0 13.0 0.00 0.00 0.00 40 991.3
20260509194039 67 223 1.0 13.0 0.00 0.00 0.00 38 991.4
20260509193539 66 141 0.0 10.0 0.00 0.00 0.00 39 991.4
20260509193039 67 176 1.0 11.0 0.00 0.00 0.00 38 991.5
20260509192537 66 192 0.0 13.0 0.00 0.00 0.00 36 991.6
20260509192036 66 168 0.0 13.0 0.00 0.00 0.00 36 991.6
20260509191537 67 218 0.0 8.0 0.00 0.00 0.00 34 991.6
20260509191036 67 167 0.0 7.0 0.00 0.00 0.00 34 991.7
20260509190535 67 145 0.0 13.0 0.00 0.00 0.00 36 991.8
20260509190036 68 130 0.0 7.0 0.00 0.00 0.00 34 991.9
20260509185533 67 175 1.0 8.0 0.00 0.00 0.00 33 992.0
20260509185032 67 98 0.0 9.0 0.00 0.00 0.00 35 992.0
20260509184543 67 219 1.0 9.0 0.00 0.00 0.00 33 992.2
20260509184030 66 136 0.0 9.0 0.00 0.00 0.00 34 992.2
20260509183529 66 215 1.0 9.0 0.00 0.00 0.00 33 992.3
20260509183032 66 126 1.0 11.0 0.00 0.00 0.00 32 992.4
20260509182528 66 208 1.0 11.0 0.00 0.00 0.00 33 992.5
20260509182027 66 238 1.0 10.0 0.00 0.00 0.00 34 992.6
20260509181527 66 89 0.0 10.0 0.00 0.00 0.00 37 992.6
20260509181026 66 119 1.0 10.0 0.00 0.00 0.00 36 992.8
20260509180525 66 122 0.0 10.0 0.00 0.00 0.00 37 992.9
20260509180025 65 92 1.0 10.0 0.00 0.00 0.00 33 992.9
20260509175524 65 130 0.0 3.0 0.00 0.00 0.00 34 992.8
20260509175023 66 170 0.0 10.0 0.00 0.00 0.00 36 992.9
20260509174526 65 236 0.0 12.0 0.00 0.00 0.00 38 993.0
20260509174022 66 214 0.0 13.0 0.00 0.00 0.00 34 992.9
20260509173524 66 180 3.0 13.0 0.00 0.00 0.00 35 993.1
20260509173020 65 167 0.0 12.0 0.00 0.00 0.00 36 993.1
20260509172519 64 69 1.0 12.0 0.00 0.00 0.00 36 993.3
20260509172019 65 146 3.0 12.0 0.00 0.00 0.00 36 993.4
20260509171519 65 205 0.0 7.0 0.00 0.00 0.00 39 993.4
20260509171017 65 142 0.0 7.0 0.00 0.00 0.00 39 993.5
20260509170516 65 157 0.0 7.0 0.00 0.00 0.00 44 993.6
20260509170016 65 172 0.0 8.0 0.00 0.00 0.00 35 993.6
20260509165514 64 142 0.0 13.0 0.00 0.00 0.00 36 993.7
20260509165013 64 187 0.0 13.0 0.00 0.00 0.00 36 993.9
20260509164513 64 209 2.0 14.0 0.00 0.00 0.00 40 993.9
20260509164012 63 195 0.0 8.0 0.00 0.00 0.00 37 994.0
20260509163516 63 142 1.0 8.0 0.00 0.00 0.00 40 994.0
20260509163013 65 178 1.0 7.0 0.00 0.00 0.00 41 994.0
20260509162509 63 136 0.0 10.0 0.00 0.00 0.00 43 994.1
20260509162007 64 215 0.0 9.0 0.00 0.00 0.00 41 994.3
20260509161507 63 145 0.0 10.0 0.00 0.00 0.00 36 994.3
20260509161008 63 209 0.0 10.0 0.00 0.00 0.00 39 994.5
20260509160505 63 200 0.0 7.0 0.00 0.00 0.00 38 994.7
20260509160004 63 225 0.0 10.0 0.00 0.00 0.00 38 994.8
20260509155502 62 153 2.0 10.0 0.00 0.00 0.00 38 994.9
20260509155002 63 150 1.0 10.0 0.00 0.00 0.00 36 995.0
20260509154601 63 162 0.0 12.0 0.00 0.00 0.00 39 995.1
20260509154059 61 180 2.0 15.0 0.00 0.00 0.00 37 995.2
20260509153558 62 194 3.0 15.0 0.00 0.00 0.00 37 995.4
20260509153057 61 200 2.0 11.0 0.00 0.00 0.00 37 995.4
20260509152557 61 178 1.0 11.0 0.00 0.00 0.00 36 995.5
20260509152100 61 215 3.0 13.0 0.00 0.00 0.00 37 995.6
20260509151602 62 140 0.0 7.0 0.00 0.00 0.00 43 995.7
20260509151052 62 189 0.0 9.0 0.00 0.00 0.00 41 995.8
20260509150551 61 142 0.0 12.0 0.00 0.00 0.00 43 995.8
20260509150051 61 161 1.0 13.0 0.00 0.00 0.00 41 995.8
20260509145550 61 207 2.0 11.0 0.00 0.00 0.00 41 995.8
20260509145049 61 161 0.0 11.0 0.00 0.00 0.00 43 995.9
20260509144603 60 212 0.0 9.0 0.00 0.00 0.00 46 995.9
20260509144046 61 209 0.0 11.0 0.00 0.00 0.00 48 996.0
20260509143545 60 148 0.0 11.0 0.00 0.00 0.00 49 996.0
20260509143051 59 200 0.0 5.0 0.00 0.00 0.00 48 996.1
20260509142542 59 228 0.0 1.0 0.00 0.00 0.00 51 996.1
20260509142041 58 250 0.0 5.0 0.00 0.00 0.00 52 996.1
20260509141541 58 276 0.0 8.0 0.00 0.00 0.00 50 996.1
20260509141038 58 247 0.0 8.0 0.00 0.00 0.00 50 996.1
20260509140537 57 185 0.0 5.0 0.00 0.00 0.00 54 996.1
20260509140035 56 192 0.0 1.0 0.00 0.00 0.00 52 996.2
20260509135534 56 191 0.0 2.0 0.00 0.00 0.00 50 996.2
20260509135035 56 208 0.0 6.0 0.00 0.00 0.00 51 996.2
20260509134556 56 227 0.0 6.0 0.00 0.00 0.00 53 996.3
20260509134029 55 140 0.0 0.0 0.00 0.00 0.00 56 996.3
20260509133528 55 146 0.0 0.0 0.00 0.00 0.00 55 996.4
20260509133026 54 205 0.0 0.0 0.00 0.00 0.00 56 996.4
20260509132526 53 150 0.0 1.0 0.00 0.00 0.00 57 996.4
20260509132023 52 192 0.0 1.0 0.00 0.00 0.00 60 996.5
20260509131522 52 238 0.0 0.0 0.00 0.00 0.00 57 996.6
20260509131021 52 138 0.0 0.0 0.00 0.00 0.00 59 996.6
20260509130521 51 132 0.0 0.0 0.00 0.00 0.00 59 996.7
20260509130019 50 225 0.0 0.0 0.00 0.00 0.00 62 996.8
20260509125517 50 226 0.0 0.0 0.00 0.00 0.00 59 996.8
20260509125015 50 232 0.0 0.0 0.00 0.00 0.00 62 996.8
20260509124514 48 232 0.0 0.0 0.00 0.00 0.00 62 996.8
20260509124012 47 223 0.0 0.0 0.00 0.00 0.00 64 996.9
20260509123511 47 223 0.0 0.0 0.00 0.00 0.00 65 997.0
20260509123011 46 223 0.0 0.0 0.00 0.00 0.00 64 997.0
20260509122510 46 224 0.0 1.0 0.00 0.00 0.00 65 997.1
20260509122015 46 224 0.0 0.0 0.00 0.00 0.00 64 997.1
20260509121521 46 198 0.0 0.0 0.00 0.00 0.00 65 997.0
20260509121008 45 360 0.0 1.0 0.00 0.00 0.00 66 997.1
20260509120507 45 360 0.0 1.0 0.00 0.00 0.00 65 997.1
20260509120007 45 223 0.0 0.0 0.00 0.00 0.00 66 997.1
20260509115505 44 194 0.0 0.0 0.00 0.00 0.00 65 997.1
20260509115004 44 226 0.0 1.0 0.00 0.00 0.00 65 997.0
20260509114515 44 173 0.0 3.0 0.00 0.00 0.00 66 996.9
20260509114002 44 195 0.0 3.0 0.00 0.00 0.00 68 996.9
20260509113503 43 161 0.0 2.0 0.00 0.00 0.00 67 996.9
20260509113000 43 136 0.0 0.0 0.00 0.00 0.00 71 996.9
20260509112600 42 199 0.0 0.0 0.00 0.00 0.00 72 996.8
20260509112059 42 213 0.0 1.0 0.00 0.00 0.00 72 996.8
20260509111606 41 119 0.0 1.0 0.00 0.00 0.00 75 996.8
20260509111058 40 228 0.0 0.0 0.00 0.00 0.00 76 996.8
20260509110557 39 229 0.0 0.0 0.00 0.00 0.00 78 996.8
20260509105557 38 229 0.0 0.0 0.00 0.00 0.00 81 996.8
20260509105055 37 230 0.0 0.0 0.00 0.00 0.00 83 996.8
20260509104553 36 230 0.0 0.0 0.00 0.00 0.00 84 996.7
20260509104051 35 230 0.0 0.0 0.00 0.00 0.00 84 996.7
20260509103550 34 360 0.0 0.0 0.00 0.00 0.00 83 996.7
20260509103101 34 230 0.0 0.0 0.00 0.00 0.00 82 996.7
20260509102548 34 230 0.0 0.0 0.00 0.00 0.00 82 996.7
20260509102047 34 230 0.0 0.0 0.00 0.00 0.00 81 996.8
20260509101616 34 230 0.0 0.0 0.00 0.00 0.00 81 996.8
20260509101044 34 230 0.0 0.0 0.00 0.00 0.00 81 996.8
20260509100545 35 230 0.0 0.0 0.00 0.00 0.00 81 996.8
20260509100044 35 230 0.0 0.0 0.00 0.00 0.00 81 996.6
20260509095543 35 230 0.0 0.0 0.00 0.00 0.00 81 996.7
20260509095042 35 230 0.0 0.0 0.00 0.00 0.00 81 996.6
20260509094542 35 230 0.0 0.0 0.00 0.00 0.00 81 996.6
20260509094042 35 230 0.0 0.0 0.00 0.00 0.00 81 996.5
20260509093541 35 230 0.0 0.0 0.00 0.00 0.00 81 996.5
20260509093041 35 230 0.0 0.0 0.00 0.00 0.00 81 996.4
20260509092539 35 230 0.0 0.0 0.00 0.00 0.00 81 996.4
20260509092039 35 230 0.0 0.0 0.00 0.00 0.00 81 996.4
20260509091543 35 230 0.0 0.0 0.00 0.00 0.00 81 996.4
20260509091038 35 230 0.0 0.0 0.00 0.00 0.00 81 996.4
20260509090538 35 230 0.0 0.0 0.00 0.00 0.00 81 996.5
20260509090041 35 230 0.0 0.0 0.00 0.00 0.00 81 996.6
20260509085537 35 230 0.0 0.0 0.00 0.00 0.00 81 996.6
20260509085036 35 230 0.0 0.0 0.00 0.00 0.00 80 996.6
20260509084539 35 230 0.0 0.0 0.00 0.00 0.00 80 996.6
20260509084036 35 230 0.0 0.0 0.00 0.00 0.00 80 996.6
20260509083535 35 230 0.0 0.0 0.00 0.00 0.00 80 996.6
20260509083035 35 230 0.0 0.0 0.00 0.00 0.00 79 996.6
20260509082534 35 230 0.0 0.0 0.00 0.00 0.00 79 996.6
20260509082034 35 230 0.0 0.0 0.00 0.00 0.00 79 996.6
20260509081539 36 230 0.0 0.0 0.00 0.00 0.00 79 996.6
20260509081034 36 230 0.0 0.0 0.00 0.00 0.00 79 996.6
20260509080533 36 230 0.0 0.0 0.00 0.00 0.00 78 996.5
20260509080036 36 230 0.0 0.0 0.00 0.00 0.00 78 996.7
20260509075532 36 230 0.0 0.0 0.00 0.00 0.00 77 996.6
20260509075034 36 230 0.0 0.0 0.00 0.00 0.00 77 996.6
20260509074541 36 230 0.0 0.0 0.00 0.00 0.00 77 996.6
20260509074029 36 230 0.0 0.0 0.00 0.00 0.00 76 996.6
20260509073528 37 230 0.0 0.0 0.00 0.00 0.00 76 996.7
20260509073027 37 230 0.0 0.0 0.00 0.00 0.00 76 996.7
20260509072527 37 230 0.0 0.0 0.00 0.00 0.00 76 996.8
20260509072025 38 230 0.0 0.0 0.00 0.00 0.00 75 996.8
20260509071526 38 230 0.0 0.0 0.00 0.00 0.00 75 996.9
20260509071023 38 230 0.0 0.0 0.00 0.00 0.00 74 996.8
20260509070523 38 230 0.0 0.0 0.00 0.00 0.00 74 996.8
20260509070023 39 230 0.0 0.0 0.00 0.00 0.00 74 996.8
20260509065521 39 230 0.0 0.0 0.00 0.00 0.00 74 996.8
20260509065023 39 231 0.0 0.0 0.00 0.00 0.00 73 996.8
20260509064520 39 231 0.0 0.0 0.00 0.00 0.00 73 996.8
20260509064022 40 231 0.0 0.0 0.00 0.00 0.00 73 996.8
20260509063517 40 231 0.0 0.0 0.00 0.00 0.00 73 996.8
20260509063025 40 231 0.0 0.0 0.00 0.00 0.00 72 996.8
20260509062521 40 231 0.0 0.0 0.00 0.00 0.00 72 996.8
20260509062017 40 231 0.0 0.0 0.00 0.00 0.00 72 996.9
20260509061514 41 231 0.0 0.0 0.00 0.00 0.00 72 996.9
20260509061021 41 231 0.0 0.0 0.00 0.00 0.00 71 996.9
20260509060512 41 231 0.0 0.0 0.00 0.00 0.00 71 996.9
20260509060016 41 231 0.0 2.0 0.00 0.00 0.00 71 996.9
20260509055511 42 231 0.0 2.0 0.00 0.00 0.00 71 996.9
20260509055010 42 236 0.0 0.0 0.00 0.00 0.00 70 996.9
20260509054509 42 242 0.0 0.0 0.00 0.00 0.00 70 997.1
20260509054008 42 251 0.0 1.0 0.00 0.00 0.00 70 997.1
20260509053508 42 225 0.0 7.0 0.00 0.00 0.00 70 997.1
20260509053008 42 225 0.0 7.0 0.00 0.00 0.00 70 997.1
20260509052507 42 238 0.0 3.0 0.00 0.00 0.00 70 997.1
20260509052007 42 249 0.0 2.0 0.00 0.00 0.00 70 997.1
20260509051508 42 253 0.0 1.0 0.00 0.00 0.00 70 997.2
20260509051007 42 224 0.0 1.0 0.00 0.00 0.00 70 997.2
20260509050506 42 242 0.0 1.0 0.00 0.00 0.00 70 997.3
20260509050006 42 241 0.0 1.0 0.00 0.00 0.00 70 997.2
20260509045505 42 246 0.0 3.0 0.00 0.00 0.00 70 997.1
20260509045005 42 240 0.0 3.0 0.00 0.00 0.00 70 997.2
20260509044505 42 238 0.0 0.0 0.00 0.00 0.00 70 997.2
20260509044010 43 252 0.0 0.0 0.00 0.00 0.00 69 997.2
20260509043506 43 273 0.0 0.0 0.00 0.00 0.00 69 997.2
20260509043004 43 252 0.0 0.0 0.00 0.00 0.00 69 997.2
20260509042504 43 248 0.0 1.0 0.00 0.00 0.00 69 997.1
20260509042004 43 247 0.0 3.0 0.00 0.00 0.00 68 997.1
20260509041503 43 223 0.0 3.0 0.00 0.00 0.00 68 997.1
20260509041001 43 242 0.0 4.0 0.00 0.00 0.00 68 997.0
20260509040601 43 229 0.0 4.0 0.00 0.00 0.00 68 997.0
20260509040100 43 225 0.0 5.0 0.00 0.00 0.00 67 997.2
20260509035600 43 234 0.0 5.0 0.00 0.00 0.00 67 997.0
20260509035100 43 232 0.0 1.0 0.00 0.00 0.00 67 997.0
20260509034600 44 235 0.0 0.0 0.00 0.00 0.00 66 997.1
20260509034059 44 263 0.0 3.0 0.00 0.00 0.00 66 997.1